• En España
  • Lista de países
  • Para 7 días
  • Temperatura del agua
  • Mapa Satelital
  • El tiempo en el mapa
  • Informadores
  • user-avatar
    Iniciar sesión

    Tiempo cada hora Mamonovo

    Hoy, 22 Julio, Domingo

    Tiempo Temperatura Precipitaciones Viento Presión Humedad
    00:00 +20°C° 0 mm 1 mps 738 mmHg 96%
    01:00 +20°C° 0 mm 1 mps 738 mmHg 97%
    02:00 +19°C° 0 mm 1 mps 738 mmHg 97%
    03:00 +20°C° 0,1 mm 1 mps 738 mmHg 97%
    04:00 +20°C° 0,1 mm 1 mps 738 mmHg 97%
    05:00 +20°C° 0,1 mm 1 mps 738 mmHg 97%
    06:00 +20°C° 0,5 mm 2 mps 739 mmHg 96%
    07:00 +21°C° 0,5 mm 2 mps 739 mmHg 94%
    08:00 +23°C° 0,5 mm 2 mps 739 mmHg 92%
    09:00 +23°C° 0,8 mm 2 mps 739 mmHg 90%
    10:00 +24°C° 0,8 mm 3 mps 739 mmHg 88%
    11:00 +24°C° 0,8 mm 3 mps 739 mmHg 85%
    12:00 +24°C° 0,3 mm 3 mps 739 mmHg 85%
    13:00 +24°C° 0,3 mm 3 mps 739 mmHg 84%
    14:00 +22°C° 0,3 mm 3 mps 739 mmHg 83%
    15:00 +22°C° 0,1 mm 3 mps 739 mmHg 84%
    16:00 +22°C° 0,1 mm 3 mps 739 mmHg 85%
    17:00 +21°C° 0,1 mm 2 mps 739 mmHg 86%
    18:00 +21°C° 0 mm 2 mps 739 mmHg 88%
    19:00 +20°C° 0 mm 2 mps 739 mmHg 90%
    20:00 +20°C° 0 mm 2 mps 740 mmHg 92%
    21:00 +19°C° 0 mm 2 mps 740 mmHg 92%
    22:00 +19°C° 0 mm 2 mps 740 mmHg 93%
    23:00 +19°C° 0 mm 2 mps 740 mmHg 93%

    Mañana, 23 Julio, Lunes

    Tiempo Temperatura Precipitaciones Viento Presión Humedad
    00:00 +19°C° 0 mm 2 mps 740 mmHg 94%
    01:00 +19°C° 0 mm 1 mps 740 mmHg 94%
    02:00 +19°C° 0 mm 1 mps 740 mmHg 95%
    03:00 +19°C° 0 mm 1 mps 740 mmHg 94%
    04:00 +18°C° 0 mm 2 mps 740 mmHg 94%
    05:00 +18°C° 0 mm 2 mps 740 mmHg 94%
    06:00 +19°C° 0 mm 2 mps 740 mmHg 92%
    07:00 +19°C° 0 mm 2 mps 740 mmHg 90%
    08:00 +20°C° 0 mm 3 mps 740 mmHg 88%
    09:00 +21°C° 0,1 mm 3 mps 741 mmHg 83%
    10:00 +22°C° 0,1 mm 3 mps 741 mmHg 78%
    11:00 +22°C° 0,1 mm 3 mps 741 mmHg 72%
    12:00 +23°C° 0,1 mm 4 mps 741 mmHg 71%
    13:00 +23°C° 0,1 mm 4 mps 741 mmHg 70%
    14:00 +23°C° 0,1 mm 4 mps 740 mmHg 69%
    15:00 +24°C° 0 mm 3 mps 740 mmHg 69%
    16:00 +24°C° 0 mm 3 mps 741 mmHg 70%
    17:00 +22°C° 0 mm 3 mps 741 mmHg 70%
    18:00 +21°C° 0 mm 3 mps 741 mmHg 76%
    19:00 +20°C° 0 mm 2 mps 741 mmHg 83%
    20:00 +19°C° 0 mm 2 mps 741 mmHg 89%
    21:00 +18°C° 0 mm 2 mps 741 mmHg 92%
    22:00 +17°C° 0 mm 2 mps 741 mmHg 94%
    23:00 +16°C° 0 mm 2 mps 741 mmHg 97%

    Pasado mañana, 24 Julio, Martes

    Tiempo Temperatura Precipitaciones Viento Presión Humedad
    00:00 +16°C° 0 mm 2 mps 741 mmHg 97%
    01:00 +16°C° 0 mm 2 mps 741 mmHg 98%
    02:00 +15°C° 0 mm 2 mps 741 mmHg 98%
    03:00 +15°C° 0 mm 2 mps 741 mmHg 97%
    04:00 +16°C° 0 mm 2 mps 741 mmHg 96%
    05:00 +16°C° 0 mm 3 mps 741 mmHg 95%
    06:00 +16°C° 0 mm 3 mps 742 mmHg 92%
    07:00 +17°C° 0 mm 3 mps 742 mmHg 88%
    08:00 +18°C° 0 mm 3 mps 742 mmHg 85%
    09:00 +18°C° 0 mm 3 mps 742 mmHg 84%
    10:00 +19°C° 0 mm 3 mps 742 mmHg 83%
    11:00 +20°C° 0 mm 3 mps 742 mmHg 82%
    12:00 +20°C° 0 mm 3 mps 742 mmHg 81%
    13:00 +21°C° 0 mm 3 mps 742 mmHg 80%
    14:00 +21°C° 0 mm 3 mps 742 mmHg 79%
    15:00 +21°C° 0 mm 3 mps 742 mmHg 82%
    16:00 +20°C° 0 mm 3 mps 742 mmHg 85%
    17:00 +20°C° 0 mm 3 mps 742 mmHg 88%
    18:00 +20°C° 0 mm 3 mps 742 mmHg 90%
    19:00 +20°C° 0 mm 3 mps 742 mmHg 92%
    20:00 +19°C° 0 mm 3 mps 742 mmHg 93%
    21:00 +19°C° 0 mm 3 mps 742 mmHg 94%
    22:00 +19°C° 0 mm 3 mps 742 mmHg 96%
    23:00 +19°C° 0 mm 3 mps 742 mmHg 97%

    25 Julio, Miércoles

    Tiempo Temperatura Precipitaciones Viento Presión Humedad
    00:00 +18°C° 0 mm 2 mps 742 mmHg 97%
    01:00 +18°C° 0 mm 2 mps 742 mmHg 98%
    02:00 +18°C° 0 mm 2 mps 743 mmHg 98%
    03:00 +18°C° 0 mm 2 mps 743 mmHg 98%
    04:00 +19°C° 0 mm 2 mps 743 mmHg 97%
    05:00 +19°C° 0 mm 2 mps 743 mmHg 97%
    06:00 +20°C° 0 mm 3 mps 743 mmHg 92%
    07:00 +21°C° 0 mm 3 mps 744 mmHg 87%
    08:00 +22°C° 0 mm 3 mps 744 mmHg 83%
    09:00 +24°C° 0,4 mm 3 mps 744 mmHg 80%
    10:00 +25°C° 0,4 mm 3 mps 744 mmHg 77%
    11:00 +26°C° 0,4 mm 3 mps 744 mmHg 75%
    12:00 +27°C° 0,1 mm 3 mps 744 mmHg 65%
    13:00 +28°C° 0,1 mm 4 mps 744 mmHg 56%
    14:00 +29°C° 0,1 mm 5 mps 744 mmHg 47%
    15:00 +28°C° 0 mm 4 mps 744 mmHg 49%
    16:00 +28°C° 0 mm 3 mps 744 mmHg 52%
    17:00 +27°C° 0 mm 3 mps 744 mmHg 54%
    18:00 +26°C° 0 mm 3 mps 744 mmHg 58%
    19:00 +24°C° 0 mm 3 mps 744 mmHg 62%
    20:00 +21°C° 0 mm 3 mps 744 mmHg 66%
    21:00 +21°C° 0 mm 3 mps 744 mmHg 66%
    22:00 +20°C° 0 mm 3 mps 744 mmHg 65%
    23:00 +19°C° 0 mm 3 mps 744 mmHg 64%

    26 Julio, Jueves

    Tiempo Temperatura Precipitaciones Viento Presión Humedad
    00:00 +19°C° 0 mm 3 mps 744 mmHg 68%
    01:00 +18°C° 0 mm 3 mps 745 mmHg 71%
    02:00 +18°C° 0 mm 3 mps 745 mmHg 74%
    03:00 +18°C° 0 mm 3 mps 745 mmHg 77%
    04:00 +18°C° 0 mm 3 mps 745 mmHg 79%
    05:00 +17°C° 0 mm 3 mps 746 mmHg 82%
    06:00 +19°C° 0 mm 3 mps 746 mmHg 77%
    07:00 +21°C° 0 mm 3 mps 746 mmHg 72%
    08:00 +24°C° 0 mm 3 mps 746 mmHg 67%
    09:00 +26°C° 0 mm 3 mps 746 mmHg 60%
    10:00 +27°C° 0 mm 4 mps 746 mmHg 53%
    11:00 +29°C° 0 mm 4 mps 747 mmHg 46%
    12:00 +30°C° 0 mm 4 mps 746 mmHg 45%
    13:00 +30°C° 0 mm 4 mps 746 mmHg 43%
    14:00 +32°C° 0 mm 4 mps 746 mmHg 42%
    15:00 +30°C° 0 mm 4 mps 746 mmHg 46%
    16:00 +30°C° 0 mm 3 mps 746 mmHg 51%
    17:00 +29°C° 0 mm 3 mps 746 mmHg 55%
    18:00 +27°C° 0 mm 3 mps 746 mmHg 63%
    19:00 +25°C° 0 mm 3 mps 746 mmHg 70%
    20:00 +22°C° 0 mm 3 mps 746 mmHg 78%
    21:00 +21°C° 0 mm 2 mps 747 mmHg 82%
    22:00 +20°C° 0 mm 2 mps 747 mmHg 86%
    23:00 +19°C° 0 mm 2 mps 747 mmHg 90%

    27 Julio, Viernes

    Tiempo Temperatura Precipitaciones Viento Presión Humedad
    00:00 +19°C° 0 mm 2 mps 747 mmHg 91%
    01:00 +18°C° 0 mm 2 mps 747 mmHg 93%
    02:00 +18°C° 0 mm 2 mps 748 mmHg 94%
    03:00 +18°C° 0 mm 2 mps 748 mmHg 92%
    04:00 +19°C° 0 mm 2 mps 748 mmHg 91%
    05:00 +19°C° 0 mm 2 mps 748 mmHg 89%
    06:00 +21°C° 0 mm 3 mps 748 mmHg 84%
    07:00 +22°C° 0 mm 3 mps 748 mmHg 78%
    08:00 +25°C° 0 mm 3 mps 749 mmHg 72%
    09:00 +27°C° 0,1 mm 3 mps 749 mmHg 65%
    10:00 +28°C° 0,1 mm 4 mps 749 mmHg 58%
    11:00 +30°C° 0,1 mm 4 mps 749 mmHg 51%
    12:00 +30°C° 0,2 mm 4 mps 749 mmHg 53%
    13:00 +29°C° 0,2 mm 4 mps 749 mmHg 54%
    14:00 +29°C° 0,2 mm 4 mps 749 mmHg 56%
    15:00 +29°C° 0,1 mm 3 mps 749 mmHg 60%
    16:00 +28°C° 0,1 mm 3 mps 749 mmHg 64%
    17:00 +28°C° 0,1 mm 2 mps 749 mmHg 69%
    18:00 +26°C° 0,1 mm 2 mps 749 mmHg 74%
    19:00 +25°C° 0,1 mm 2 mps 749 mmHg 80%
    20:00 +23°C° 0,1 mm 2 mps 749 mmHg 86%
    21:00 +23°C° 0 mm 2 mps 749 mmHg 87%
    22:00 +21°C° 0 mm 2 mps 749 mmHg 89%
    23:00 +20°C° 0 mm 2 mps 749 mmHg 91%
    Mostrar más